STARLINK-31149, 58863

Orbit data source: Space-Track

STARLINK-31149, 58863 is a payload satellite owned by SpaceX/Seattle (US) in LEO that was launched on Mon, 29 Jan 2024 UTC via an FALCON 9 launch vehicle from the Air Force Eastern Test Range (AFETR). Payload-class satellites include a variety of spacecraft equipped with specific instruments for various scientific and technological missions. These include communications satellites like Starlink; space stations such as the ISS; scientific satellites like the Hubble; Earth observation satellites from companies like Planet Labs, Umbra, and HawkEye 360; GPS; miniature CubeSats for education and research; and military/defense satellites.

Loading next visibility...
Identifier
58863, 2024-019L
Orbit
LEO
Country
Flag of USUS
Related business
Manufacturer
SpaceX/Seattle
Mission
Operational Commercial Communications
Bus & Motor
STARLINK V2M, Unknown motor
Mass
730 kg wet, ~700 kg dry
Launch date (UTC)
2024-01-29 (2 years ago)
Launch vehicle
FALCON 9
Launch site
Air Force Eastern Test Range (AFETR)
Object type
Payload
Rocket body
Debris
Shape & HBR
Box + 2 Pan, 17.7 m
Radar Cross Section
33.884 m², Large (>1 m²)

Expand to show TLE details & history
Last TLE update: 2 days ago

TLE from 2 days ago
0 STARLINK-31149
1 58863U 24019L   26171.32111006  .00001358  00000-0  58889-4 0  9996
2 58863  43.0032  28.8848 0001194 276.8839  83.1877 15.27569422134780
Epoch: 2026-06-20T07:42Z
TLE epoch observation values (Epoch: 2026-06-20T07:42:23.909Z)
Latitude
0.00001°
Longitude
4.74777°
Altitude
482.759 km
Speed
7.626 km/s
True Right ascension
01h 55m 32s
True Declination
0° 00' 00"
Sunlit
Object was in daylight at epoch
Visualization orbit readout
Latitude
Unknown
Longitude
Unknown
Altitude
Unknown
Speed
Unknown
Apparent Right ascension
Unknown
Apparent Declination
Unknown
Sunlit
N/A
Visualization observer readout
Local Sidereal Time
00:33:48
Azimuth
Unknown
Elevation
Unknown
Doppler factor
Unknown
Orbital elements
Apogee altitude
485.845 km
Perigee altitude
484.206 km
Semi-major axis
6,863.162 km
Eccentricity
0.00012
Inclination
43.0032°
RAAN
28.8848°
Arg. of periapsis
276.8839°
True anomaly
83.20129°
Mean anomaly
83.1877°
Eccentric anomaly
83.19449°
Mean motion
3.8173 °/min
Orbital period
94.31 mins
BSTAR
0.000058889
Loading maneuver chart data...
Computing Atmospheric mass density...
Loading historical data...
Loading historical data...
Loading historical data...
Loading historical data...
Loading historical data...
Loading historical data...
Loading historical data...

Documentation

Showing up to 5 results
|